Skip Page Navigation
NASA JPL Caltech
NASA Logo - Jet Propulsion Laboratory + View the NASA Portal
+ Center for Near-Earth Object Studies
JPL Home Earth Solar System Stars & Galaxies Technology
JPL Solar System Dynamics
BODIES ORBITS EPHEMERIDES TOOLS PHYSICAL DATA DISCOVERY FAQ SITE MAP
JPL Small-Body Database Browser
Search: [ help ]  
(2014 FL72)
Classification: TransNeptunian Object          SPK-ID: 3757902
Ephemeris | Orbit Diagram | Orbital Elements | Physical Parameters ]

[ show orbit diagram ]
Orbital Elements at Epoch 2459200.5 (2020-Dec-17.0) TDB
Reference: JPL 3 (heliocentric ecliptic J2000)
 Element Value Uncertainty (1-sigma)   Units 
e .6277138913798681 0.014857  
a 101.9513527538951 3.1327 au
q 37.95507238530598 0.35196 au
i 29.2037291720402 0.0081755 deg
node 201.1375885173094 0.0028755 deg
peri 258.7760307154588 0.088947 deg
M 25.9399787943726 1.4723 deg
tp 2432107.628835938300
(1946-Oct-14.12883594)
289.16 TDB
period 376000.0613870245
1029.43
17330
47.45
d
yr
n .000957446652194678 4.413e-05 deg/d
Q 165.9476331224842 5.0992 au
  Orbit Determination Parameters
   # obs. used (total)      13  
   data-arc span      715 days (1.96 yr)  
   first obs. used      2014-03-26  
   last obs. used      2016-03-10  
   planetary ephem.      DE441  
   SB-pert. ephem.      SB441-N16  
   condition code      6  
   norm. resid. RMS      .18793  
   source      ORB  
   producer      Otto Matic  
   solution date      2021-Apr-15 09:42:35  

Additional Information
 Earth MOID = 37.0945 au 
 Jupiter MOID = 33.4966 au 
 T_jup = 6.067 
[ show covariance matrix ]

Ephemeris | Orbit Diagram | Orbital Elements | Physical Parameters ]

Physical Parameter Table
Parameter Symbol Value Units Sigma Reference Notes
absolute magnitude H 6.8   n/a E2016Q83  
Ephemeris | Orbit Diagram | Orbital Elements | Physical Parameters ]
ABOUT SSD CREDITS/AWARDS PRIVACY/COPYRIGHT GLOSSARY LINKS
FirstGov 2021-Apr-23 03:40 UT
(server date/time)  
NASA Home Page
Site Manager:   Ryan S. Park
Webmaster  Alan B. Chamberlin